Satellite: NANOSALD
Catalog number: 37361
Epoch time:      11174.52327160
Element set:    0250
Inclination:      071.9550 deg
RA of node:       019.4208 deg
Eccentricity:    0.0044931
Arg of perigee:   112.1569 deg
Mean anomaly:     248.4010 deg
Mean motion:   15.02018741 rev/day
Decay rate:     7.2655e-04 rev/day^2
Epoch rev:           02307
Checksum:              256

Satellite: FO-70
Catalog number: 37380
Epoch time:      11181.48738262
Element set:    0203
Inclination:      071.9736 deg
RA of node:       010.0653 deg
Eccentricity:    0.0019150
Arg of perigee:   254.7400 deg
Mean anomaly:     105.1644 deg
Mean motion:   14.76370961 rev/day
Decay rate:       1.97e-06 rev/day^2
Epoch rev:           03282
Checksum:              278

/EX
SB KEPS @ AMSAT  $ORB11181.W
Orbital Elements  11181.WEATHER

HR AMSAT ORBITAL ELEMENTS FOR WEATHER SATELLITES
FROM WA5QGD FORT WORTH,TX June 30, 2011
Send Subscribe/unsubscribe to KEPS at http://www.amsat.org/mailman/listinfo/kep
BID: ORB11181.W
TO ALL RADIO AMATEURS BT

Satellite: NOAA-10
Catalog number: 16969
Epoch time:      11173.53698638
Element set:     540
Inclination:      098.6184 deg
RA of node:       203.2511 deg
Eccentricity:    0.0011653
Arg of perigee:   206.4589 deg
Mean anomaly:     153.6009 deg
Mean motion:   14.27466237 rev/day
Decay rate:       1.26e-06 rev/day^2
Epoch rev:           28841
Checksum:              310

Satellite: NOAA-11
Catalog number: 19531
Epoch time:      11173.36268988
Element set:     541
Inclination:      098.7513 deg
RA of node:       260.7287 deg
Eccentricity:    0.0011439
Arg of perigee:   169.5844 deg
Mean anomaly:     190.5598 deg
Mean motion:   14.14919201 rev/day
Decay rate:       2.17e-06 rev/day^2
Epoch rev:           17348
Checksum:              326

Satellite: NOAA-12
Catalog number: 21263
Epoch time:      11173.49046337
Element set:      38
Inclination:      098.7482 deg
RA of node:       191.3266 deg
Eccentricity:    0.0012517
Arg of perigee:   167.0131 deg
Mean anomaly:     193.1372 deg
Mean motion:   14.25720235 rev/day
Decay rate:       1.49e-06 rev/day^2
Epoch rev:            4516
Checksum:              275

Satellite: MET-3/5
Catalog number: 21655
Epoch time:      11180.89664957
Element set:    0148
Inclination:      082.5569 deg
RA of node:       041.7960 deg
Eccentricity:    0.0014411
Arg of perigee:   121.5468 deg
Mean anomaly:     238.7106 deg
Mean motion:   13.17028608 rev/day
Decay rate:        5.1e-07 rev/day^2
Epoch rev:           95539
Checksum:              316

Satellite: MET-2/21
Catalog number: 22782
Epoch time:      11173.46300070
Element set:     128
Inclination:      082.5493 deg
RA of node:       318.6907 deg
Eccentricity:    0.0024098
Arg of perigee:   084.6065 deg
Mean anomaly:     275.7837 deg
Mean motion:   13.83659074 rev/day
Decay rate:        3.0e-07 rev/day^2
Epoch rev:           89928
Checksum:              322

Satellite: OKEAN-4
Catalog number: 23317
Epoch time:      11173.89923597
Element set:     590
Inclination:      082.5399 deg
RA of node:       007.8047 deg
Eccentricity:    0.0023754
Arg of perigee:   098.7134 deg
Mean anomaly:     261.6773 deg
Mean motion:   14.83090269 rev/day
Decay rate:       2.87e-06 rev/day^2
Epoch rev:           90139
Checksum:              337

Satellite: NOAA-14
Catalog number: 23455
Epoch time:      11173.41415782
Element set:     524
Inclination:      098.8523 deg
RA of node:       255.9981 deg
Eccentricity:    0.0008563
Arg of perigee:   266.4902 deg
Mean anomaly:     093.5292 deg
Mean motion:   14.13822841 rev/day
Decay rate:        3.6e-07 rev/day^2
Epoch rev:           84981
Checksum:              319

Satellite: NOAA-15
Catalog number: 25338
Epoch time:      11173.50178069
Element set:     859
Inclination:      098.6540 deg
RA of node:       159.5703 deg
Eccentricity:    0.0011684
Arg of perigee:   078.2342 deg
Mean anomaly:     282.0161 deg
Mean motion:   14.24925286 rev/day
Decay rate:       1.42e-06 rev/day^2
Epoch rev:           68148
Checksum:              313

Satellite: RESURS
Catalog number: 25394
Epoch time:      11173.51690311
Element set:     826
Inclination:      098.2983 deg
RA of node:       176.2453 deg
Eccentricity:    0.0000729
Arg of perigee:   169.9733 deg
Mean anomaly:     190.1462 deg
Mean motion:   14.24234854 rev/day
Decay rate:       -3.1e-07 rev/day^2
Epoch rev:           67306
Checksum:              298

Satellite: FENGYUN1
Catalog number: 25730
Epoch time:      11180.95664908
Element set:    0362
Inclination:      098.8174 deg
RA of node:       141.8709 deg
Eccentricity:    0.0022517
Arg of perigee:   281.0351 deg
Mean anomaly:     078.8289 deg
Mean motion:   14.08657464 rev/day
Decay rate:       8.89e-06 rev/day^2
Epoch rev:           62486
Checksum:              338

Satellite: OKEAN-0
Catalog number: 25860
Epoch time:      11173.52532202
Element set:     340
Inclination:      097.8853 deg
RA of node:       139.8233 deg
Eccentricity:    0.0001272
Arg of perigee:   039.3497 deg
Mean anomaly:     320.7804 deg
Mean motion:   14.73795459 rev/day
Decay rate:       1.12e-06 rev/day^2
Epoch rev:           64144
Checksum:              289

